Regional Weather Roundup
Issued by NWS

Home | Current Version | Previous Version | Graphics & Text | Print | Product List | Glossary On
Versions: 1 2 3 4 5 6 7 8 9 10 11 12 13 14 15 16 17 18 19 20 21 22 23 24 25 26 27 28 29 30 31 32 33 34 35 36 37 38 39 40 41 42 43 44 45 46 47 48 49 50
000
ASUS45 KSLC 121610
RWRUT

UTAH REGIONAL WEATHER ROUNDUP
NATIONAL WEATHER SERVICE SALT LAKE CITY UT
900 AM MST FRI FEB 12 2016

UTZ001>011-023>025-121700-

NORTHERN UTAH

CITY           SKY/WX    TMP DP  RH WIND       PRES   REMARKS
BRIGHAM CITY   CLOUDY    25  23  91 CALM      30.47S VSB 1/2
HILL AFB       FOG       25  23  93 S3        30.41F VSB 1
LOGAN          FOG       20  19  96 W3        30.44S VSB 1/4
OGDEN          CLOUDY    25  25 100 S7        30.43F FOG     WCI  17
PROVO AIRPORT  FOG       19  18  93 CALM      30.44S VSB 1/4
SALT LAKE CITY FOG       29  27  92 N3        30.44S VSB 1
VERNAL         CLOUDY    20  17  88 CALM      30.46S FOG
WENDOVER       CLOUDY    28  25  86 CALM      30.44S
HEBER CITY       N/A     14  12  92 CALM      30.40S FOG
WEST JORDAN    CLOUDY    27  27 100 CALM      30.44R

$$

UTZ012>022-026-027-121700-

SOUTHERN/CENTRAL UTAH

CITY           SKY/WX    TMP DP  RH WIND       PRES   REMARKS
BLANDING       MOSUNNY   34  24  66 CALM      30.51R
BRYCE CANYON   MOSUNNY   21  10  62 SW3       30.46R
CEDAR CITY     MOSUNNY   25  22  88 CALM      30.37R
DELTA          CLOUDY    12  10  93 CALM      30.43S VSB<1/4
HANKSVILLE     MOSUNNY   32  30  93 CALM      30.48S
MILFORD        FOG        6   4  91 CALM      30.41S VSB 1/2
MOAB/CYNLANDS  MOSUNNY   32  29  88 CALM      30.44R
PRICE          SUNNY     36  22  56 CALM      30.43R
ST GEORGE      SUNNY     41  25  52 CALM      30.37R
KANAB          SUNNY     45  25  45 N7        30.41S

$$

REGIONAL REPORTS     COLORADO/ARIZONA

CITY           SKY/WX    TMP DP  RH WIND       PRES   REMARKS
CRAIG, CO      CLOUDY     9   6  88 SE3       30.45R
GRAND JUNCTION CLOUDY    30  23  75 S6        30.46R WCI  24
RIFLE          CLOUDY    21  13  71 CALM      30.48S
MONTROSE       CLOUDY    31  19  61 S7        30.48S WCI  24
CORTEZ         CLOUDY    32  20  61 CALM      30.45R
PAGE, AZ       SUNNY     39  30  70 SW3       30.42R
GRAND CANYON   SUNNY     38  22  52 NE3       30.41S
KINGMAN        SUNNY     52  25  35 CALM      30.27R
FLAGSTAFF      SUNNY     35  22  58 CALM      30.43R

$$

REGIONAL REPORTS    NEVADA/IDAHO/WYOMING

CITY           SKY/WX    TMP DP  RH WIND       PRES   REMARKS
LAS VEGAS, NV  MOSUNNY   51  21  30 SW5       30.23R
ELY            MOSUNNY   18   9  68 S13       30.38S WCI   5
ELKO           CLOUDY    10   7  87 E8        30.41S WCI  -2
POCATELLO, ID  CLOUDY    27  21  78 CALM      30.37R
BURLEY         SUNNY     32  28  85 CALM      30.32R
EVANSTON, WY   CLOUDY    35  15  44 SE6       30.39R WCI  30
ROCK SPRINGS   CLOUDY    34  20  56 S3        30.38S

$$



USA.gov is the U.S. government's official web portal to all federal, state and local government web resources and services.